DW3733 Luzzi (cosenza) IT current weather conditions

sailwx.info

Wind from 001 at 2 knots gusting 5

Air temperature 29.4° C
Dewpoint 18.5° C

Last reported at 2014-Sep-19 10:53 UTC.
Time now 2014-Sep-19 11:56 UTC

Location: N 39°27' E 016°16'.
View on Google Maps.

See reports from other nearby stations

  
Tides and Currents Weather Stations Pressure Air Temp Water Temp Dewpoint Dewpoint Depression Visibility Wind Speed Wind Dir Waves Ship Positions
date/time (UTC)wind fromknots sea level pressurealtimeterstation pressurevisibilityair tempwater tempwave heightnotes
2014-Sep-19 10:53 001 2 gusting 5 29.4
2014-Sep-19 10:43 340 1 gusting 5 28.9
2014-Sep-19 10:33 032 1 gusting 6 28.3
2014-Sep-19 10:23 134 2 gusting 6 28.3
2014-Sep-19 10:13 011 2 gusting 5 28.3
2014-Sep-19 10:03 279 1 gusting 4 27.8
2014-Sep-19 09:53 27.8
2014-Sep-19 09:43 27.8
2014-Sep-19 09:33 301 0 gusting 2 27.2
2014-Sep-19 09:23 246 1 gusting 2 26.7
2014-Sep-19 09:13 185 0 gusting 2 26.7
2014-Sep-19 09:03 002 0 gusting 2 26.7
2014-Sep-19 08:53 225 0 gusting 5 26.1
2014-Sep-19 08:43 173 0 gusting 2 25.6
2014-Sep-19 08:33 234 0 gusting 2 25.6
2014-Sep-19 08:23 034 1 gusting 2 25.0
2014-Sep-19 08:13 213 1 gusting 4 24.4
2014-Sep-19 08:03 302 0 gusting 4 24.4
2014-Sep-19 07:53 283 0 gusting 2 23.3
2014-Sep-19 07:43 149 1 gusting 5 23.3
2014-Sep-19 07:33 203 0 gusting 5 22.8
2014-Sep-19 07:23 171 1 gusting 4 22.2
2014-Sep-19 07:13 205 1 gusting 5 21.7
2014-Sep-19 07:03 251 1 gusting 2 21.1
2014-Sep-19 06:53 187 1 gusting 2 20.6
2014-Sep-19 06:43 149 0 gusting 2 20.6
2014-Sep-19 06:33 180 0 gusting 2 20.0
2014-Sep-19 06:23 301 0 gusting 1 20.0
2014-Sep-19 06:13 180 19.4
2014-Sep-19 06:03 182 0 gusting 0 19.4
2014-Sep-19 05:53 318 19.4
2014-Sep-19 05:43 223 18.9
2014-Sep-19 05:33 090 0 gusting 1 18.3
2014-Sep-18 20:43 053 0 gusting 1 20.6
2014-Sep-18 20:33 045 0 gusting 1 20.6
2014-Sep-18 20:23 101 0 gusting 0 20.6
2014-Sep-18 20:13 090 0 gusting 0 20.6
2014-Sep-18 20:03 315 21.1
2014-Sep-18 19:53 315 21.1
2014-Sep-18 19:43 090 21.1
2014-Sep-18 19:33 21.1
2014-Sep-18 19:23 090 0 gusting 2 21.1
2014-Sep-18 19:13 090 1 gusting 2 21.1
2014-Sep-18 19:03 090 0 gusting 2 21.7
2014-Sep-18 18:53 097 0 gusting 1 21.7
2014-Sep-18 18:43 127 0 gusting 2 21.7
2014-Sep-18 18:33 090 0 gusting 1 21.7
2014-Sep-18 18:23 180 0 gusting 0 21.7
2014-Sep-18 18:13 225 0 gusting 0 22.2
2014-Sep-18 18:03 292 22.8
2014-Sep-18 17:53 018 0 gusting 1 22.8
2014-Sep-18 17:43 324 22.8
2014-Sep-18 17:33 180 0 gusting 4 22.8
2014-Sep-18 17:23 069 2 gusting 5 22.8
2014-Sep-18 17:13 063 2 gusting 5 23.3
2014-Sep-18 17:03 23.3
2014-Sep-18 16:53 341 1 gusting 2 23.9
2014-Sep-18 16:43 059 1 gusting 4 23.9
2014-Sep-18 16:33 017 0 gusting 2 25.0
2014-Sep-18 16:23 176 0 gusting 4 25.0
2014-Sep-18 16:13 298 1 gusting 4 25.0
2014-Sep-18 16:03 077 1 gusting 4 25.6
2014-Sep-18 15:53 315 0 gusting 2 25.6
2014-Sep-18 15:43 113 1 gusting 4 26.1
2014-Sep-18 15:33 353 1 gusting 6 26.7
2014-Sep-18 15:23 304 1 gusting 6 26.7
2014-Sep-18 15:13 345 2 gusting 5 27.2
2014-Sep-18 15:03 358 2 gusting 6 27.2
2014-Sep-18 14:53 327 3 gusting 6 27.8
2014-Sep-18 14:43 273 2 gusting 6 27.8
2014-Sep-18 14:33 307 2 gusting 6 27.8
2014-Sep-18 14:23 322 2 gusting 6 28.3
2014-Sep-18 14:13 115 2 gusting 6 28.3
2014-Sep-18 14:03 28.3
2014-Sep-18 13:53 28.3
2014-Sep-18 13:43 28.3
2014-Sep-18 13:33 28.3
2014-Sep-18 13:23 28.3
2014-Sep-18 13:13 007 1 gusting 6 28.3
2014-Sep-18 13:03 002 2 gusting 7 28.3
2014-Sep-18 12:53 323 4 gusting 7 28.3
2014-Sep-18 12:43 321 2 gusting 8 28.3
2014-Sep-18 12:33 28.3
2014-Sep-18 12:23 045 2 gusting 6 27.8
2014-Sep-18 12:13 017 3 gusting 7 27.8
2014-Sep-18 12:03 339 2 gusting 6 27.8
2014-Sep-18 11:53 043 1 gusting 6 28.3
2014-Sep-18 11:43 079 1 gusting 6 28.3
2014-Sep-18 11:33 135 1 gusting 6 28.3
2014-Sep-18 11:23 329 2 gusting 6 27.8
2014-Sep-18 11:13 063 2 gusting 6 27.8
2014-Sep-18 11:03 005 0 gusting 5 27.2
2014-Sep-18 10:53 072 0 gusting 6 27.2
2014-Sep-18 10:43 274 2 gusting 6 26.7
2014-Sep-18 10:33 286 0 gusting 6 26.7
2014-Sep-18 10:23 271 2 gusting 6 26.7
2014-Sep-18 10:13 26.1
2014-Sep-18 10:03 315 1 gusting 5 26.1
2014-Sep-18 09:53 304 1 gusting 5 25.6
2014-Sep-18 09:43 257 0 gusting 4 25.6
2014-Sep-18 09:33 114 0 gusting 4 25.6
2014-Sep-18 09:23 178 0 gusting 2 25.0
2014-Sep-18 09:13 326 1 gusting 4 24.4
2014-Sep-18 09:03 045 1 gusting 2 25.0
2014-Sep-18 08:53 069 1 gusting 4 23.9
2014-Sep-18 08:43 045 1 gusting 2 23.9
2014-Sep-18 08:33 357 0 gusting 2 23.3
2014-Sep-18 08:23 180 0 gusting 2 22.8
2014-Sep-18 08:13 221 1 gusting 4 22.8
2014-Sep-18 08:03 229 1 gusting 4 22.2
2014-Sep-18 07:53 116 0 gusting 2 21.7
2014-Sep-18 07:43 352 0 gusting 1 21.1
2014-Sep-18 07:33 022 0 gusting 1 20.6
2014-Sep-18 07:23 20.6
2014-Sep-18 07:13 012 0 gusting 1 20.0
2014-Sep-18 07:03 153 0 gusting 1 19.4
2014-Sep-18 06:53 217 0 gusting 2 19.4
2014-Sep-18 06:43 226 0 gusting 1 18.9
2014-Sep-18 06:33 089 1 gusting 2 18.3
2014-Sep-18 06:23 187 0 gusting 1 17.8
2014-Sep-18 06:13 315 0 gusting 0 17.8
2014-Sep-18 06:03 225 16.7
2014-Sep-18 05:53 063 16.1
2014-Sep-18 05:43 103 26.7
2014-Sep-17 14:33 334 1 gusting 4 26.7
2014-Sep-17 14:23 325 1 gusting 5 26.7
2014-Sep-17 14:13 26.7
2014-Sep-17 14:03 336 2 gusting 5 26.7
2014-Sep-17 13:53 076 1 gusting 4 26.7
2014-Sep-17 13:43 034 0 gusting 6 27.2
2014-Sep-17 13:33 045 0 gusting 5 27.8
2014-Sep-17 13:23 173 0 gusting 2 27.8
2014-Sep-17 13:13 27.8
2014-Sep-17 13:03 315 0 gusting 5 27.8
2014-Sep-17 12:53 225 1 gusting 6 27.8
2014-Sep-17 12:43 195 0 gusting 5 27.8
2014-Sep-17 12:33 253 1 gusting 6 27.2
2014-Sep-17 12:23 008 2 gusting 4 27.2
2014-Sep-17 12:13 274 0 gusting 5 27.2
2014-Sep-17 12:03 011 2 gusting 6 26.7
2014-Sep-17 11:53 338 2 gusting 6 26.7
2014-Sep-17 11:43 103 1 gusting 5 26.7
2014-Sep-17 11:33 090 1 gusting 5 26.7
2014-Sep-17 11:23 077 0 gusting 5 26.7
2014-Sep-17 11:13 26.7
2014-Sep-17 11:03 344 0 gusting 4 26.7